Time,TemperatureF,DewpointF,PressureIn,WindDirection,WindDirectionDegrees,WindSpeedMPH,WindSpeedGustMPH,Humidity,HourlyPrecipIn,Conditions,Clouds,dailyrainin,SoftwareType,DateUTC
2013-06-19 00:00:00,50.3,48.9,30.06,NNE,22,0.0,0.0,95,0.00,CLR,,0.00,WeatherDisplay:10.37,2013-06-19 04:00:00,
2013-06-19 00:01:00,53.3,51.0,30.00,NNW,330,0.0,0.0,92,0.00,RA,,0.00,WeatherDisplay:10.37,2013-06-19 04:01:00,
2013-06-19 00:05:00,50.2,48.8,30.06,NNE,26,1.0,3.0,95,0.00,CLR,,0.00,WeatherDisplay:10.37,2013-06-19 04:05:00,
2013-06-19 00:06:00,53.0,50.7,30.00,NNW,330,0.0,0.0,92,0.00,RA,,0.00,WeatherDisplay:10.37,2013-06-19 04:06:00,
2013-06-19 00:10:00,50.1,48.7,30.06,NE,50,0.0,1.0,95,0.00,CLR,,0.00,WeatherDisplay:10.37,2013-06-19 04:10:00,
2013-06-19 00:11:00,53.0,51.0,30.00,NNW,330,0.0,0.0,93,0.00,FEW,,0.00,WeatherDisplay:10.37,2013-06-19 04:11:00,
2013-06-19 00:15:00,50.0,48.6,30.07,ENE,68,0.0,2.0,95,0.00,CLR,,0.00,WeatherDisplay:10.37,2013-06-19 04:15:00,
2013-06-19 00:16:00,52.9,50.9,30.00,NNW,330,0.0,0.0,93,0.00,FEW,,0.00,WeatherDisplay:10.37,2013-06-19 04:16:00,
2013-06-19 00:20:00,49.9,48.5,30.07,ENE,68,0.0,0.0,95,0.00,CLR,,0.00,WeatherDisplay:10.37,2013-06-19 04:20:00,
2013-06-19 00:21:00,52.9,50.9,30.00,NNW,330,0.0,0.0,93,0.00,FEW,,0.00,WeatherDisplay:10.37,2013-06-19 04:21:00,
2013-06-19 00:25:00,49.6,47.9,30.07,ENE,68,0.0,0.0,94,0.00,CLR,,0.00,WeatherDisplay:10.37,2013-06-19 04:25:00,
2013-06-19 00:26:00,52.8,50.8,30.00,NW,323,0.0,0.0,93,0.00,FEW,,0.00,WeatherDisplay:10.37,2013-06-19 04:26:00,
2013-06-19 00:30:00,49.3,47.6,30.07,ENE,68,0.0,0.0,94,0.00,CLR,,0.00,WeatherDisplay:10.37,2013-06-19 04:30:00,
2013-06-19 00:31:00,52.9,51.2,30.00,NW,323,0.0,0.0,94,0.00,FEW,,0.00,WeatherDisplay:10.37,2013-06-19 04:31:00,
2013-06-19 00:35:00,49.1,47.4,30.07,ENE,68,0.0,0.0,94,0.00,CLR,,0.00,WeatherDisplay:10.37,2013-06-19 04:35:00,
2013-06-19 00:36:00,52.9,51.2,30.00,NW,323,0.0,0.0,94,0.00,FEW,,0.00,WeatherDisplay:10.37,2013-06-19 04:36:00,
2013-06-19 00:40:00,49.1,47.7,30.08,ENE,68,0.0,0.0,95,0.00,CLR,,0.00,WeatherDisplay:10.37,2013-06-19 04:40:00,
2013-06-19 00:41:00,52.7,51.0,30.00,NW,323,0.0,0.0,94,0.00,FEW,,0.00,WeatherDisplay:10.37,2013-06-19 04:41:00,
2013-06-19 00:45:00,49.3,47.9,30.08,ENE,68,0.0,0.0,95,0.00,CLR,,0.00,WeatherDisplay:10.37,2013-06-19 04:45:00,
2013-06-19 00:46:00,52.6,50.9,30.00,NW,323,0.0,0.0,94,0.00,FEW,,0.00,WeatherDisplay:10.37,2013-06-19 04:46:00,
2013-06-19 00:50:00,49.4,48.0,30.08,ENE,68,0.0,0.0,95,0.00,CLR,,0.00,WeatherDisplay:10.37,2013-06-19 04:50:00,
2013-06-19 00:51:00,52.7,51.0,30.01,NW,323,0.0,0.0,94,0.00,FEW,,0.00,WeatherDisplay:10.37,2013-06-19 04:51:00,
2013-06-19 00:56:00,52.8,51.1,30.01,NW,323,0.0,0.0,94,0.00,FEW,,0.00,WeatherDisplay:10.37,2013-06-19 04:56:00,
2013-06-19 01:01:00,52.6,50.9,30.01,NW,323,0.0,0.0,94,0.00,FEW,,0.00,WeatherDisplay:10.37,2013-06-19 05:01:00,
2013-06-19 01:06:00,52.5,50.8,30.01,NW,323,0.0,0.0,94,0.00,FEW,,0.00,WeatherDisplay:10.37,2013-06-19 05:06:00,
2013-06-19 01:11:00,52.2,50.5,30.01,NW,323,0.0,0.0,94,0.00,FEW,,0.00,WeatherDisplay:10.37,2013-06-19 05:11:00,
2013-06-19 01:16:00,52.1,50.4,30.01,NW,323,0.0,0.0,94,0.00,FEW,,0.00,WeatherDisplay:10.37,2013-06-19 05:16:00,
2013-06-19 01:21:00,52.0,50.3,30.01,NW,323,0.0,0.0,94,0.00,FEW,,0.00,WeatherDisplay:10.37,2013-06-19 05:21:00,
2013-06-19 01:26:00,52.0,50.3,30.01,NW,323,0.0,0.0,94,0.00,FEW,,0.00,WeatherDisplay:10.37,2013-06-19 05:26:00,
2013-06-19 01:31:00,52.1,50.7,30.01,NW,323,0.0,0.0,95,0.00,FEW,,0.00,WeatherDisplay:10.37,2013-06-19 05:31:00,
2013-06-19 01:36:00,52.1,50.7,30.00,NW,323,0.0,0.0,95,0.00,FEW,,0.00,WeatherDisplay:10.37,2013-06-19 05:36:00,
2013-06-19 01:41:00,52.1,50.7,30.01,NW,323,0.0,0.0,95,0.00,FEW,,0.00,WeatherDisplay:10.37,2013-06-19 05:41:00,
2013-06-19 01:46:00,52.1,50.7,30.01,NW,323,0.0,0.0,95,0.00,FEW,,0.00,WeatherDisplay:10.37,2013-06-19 05:46:00,
2013-06-19 01:51:00,52.0,50.6,30.01,NW,323,0.0,0.0,95,0.00,FEW,,0.00,WeatherDisplay:10.37,2013-06-19 05:51:00,
2013-06-19 01:56:00,51.8,50.1,30.01,NW,323,0.0,0.0,94,0.00,FEW,,0.00,WeatherDisplay:10.37,2013-06-19 05:56:00,
2013-06-19 02:01:00,51.8,50.4,30.01,NW,323,0.0,0.0,95,0.00,FEW,,0.00,WeatherDisplay:10.37,2013-06-19 06:01:00,
2013-06-19 02:06:00,51.7,50.3,30.01,NW,323,0.0,0.0,95,0.00,FEW,,0.00,WeatherDisplay:10.37,2013-06-19 06:06:00,
2013-06-19 02:11:00,51.7,50.3,30.01,NW,323,0.0,0.0,95,0.00,FEW,,0.00,WeatherDisplay:10.37,2013-06-19 06:11:00,
2013-06-19 02:16:00,51.7,50.3,30.01,NW,323,0.0,0.0,95,0.00,FEW,,0.00,WeatherDisplay:10.37,2013-06-19 06:16:00,
2013-06-19 02:21:00,51.6,50.2,30.02,NW,323,0.0,0.0,95,0.00,FEW,,0.00,WeatherDisplay:10.37,2013-06-19 06:21:00,
2013-06-19 02:26:00,51.5,50.1,30.02,NW,323,0.0,0.0,95,0.00,FEW,,0.00,WeatherDisplay:10.37,2013-06-19 06:26:00,
2013-06-19 02:31:00,51.3,49.9,30.02,NW,323,0.0,0.0,95,0.00,FEW,,0.00,WeatherDisplay:10.37,2013-06-19 06:31:00,
2013-06-19 02:36:00,51.2,49.8,30.02,NW,323,0.0,0.0,95,0.00,FEW,,0.00,WeatherDisplay:10.37,2013-06-19 06:36:00,
2013-06-19 02:41:00,51.4,50.3,30.02,ENE,76,0.2,1.2,96,0.00,FEW,,0.00,WeatherDisplay:10.37,2013-06-19 06:41:00,
2013-06-19 02:46:00,51.4,50.3,30.03,ENE,76,0.0,0.0,96,0.00,FEW,,0.00,WeatherDisplay:10.37,2013-06-19 06:46:00,
2013-06-19 02:51:00,51.5,50.4,30.03,ENE,76,0.0,0.0,96,0.00,FEW,,0.00,WeatherDisplay:10.37,2013-06-19 06:51:00,
2013-06-19 02:56:00,51.5,50.4,30.03,ENE,77,0.0,0.0,96,0.00,FEW,,0.00,WeatherDisplay:10.37,2013-06-19 06:56:00,
2013-06-19 03:01:00,51.7,50.6,30.03,ENE,76,0.0,0.0,96,0.00,FEW,,0.00,WeatherDisplay:10.37,2013-06-19 07:01:00,
2013-06-19 03:06:00,51.8,50.7,30.03,ENE,77,0.0,0.0,96,0.00,FEW,,0.00,WeatherDisplay:10.37,2013-06-19 07:06:00,
2013-06-19 03:11:00,52.0,50.9,30.03,ENE,76,0.0,0.0,96,0.00,FEW,,0.00,WeatherDisplay:10.37,2013-06-19 07:11:00,
2013-06-19 03:16:00,52.1,51.0,30.03,ENE,77,0.0,0.0,96,0.00,FEW,,0.00,WeatherDisplay:10.37,2013-06-19 07:16:00,
2013-06-19 03:21:00,52.1,51.0,30.04,ENE,76,0.0,0.0,96,0.00,FEW,,0.00,WeatherDisplay:10.37,2013-06-19 07:21:00,
2013-06-19 05:56:00,49.8,48.4,30.08,East,95,0.0,3.0,95,0.00,FEW,,0.00,WeatherDisplay:10.37,2013-06-19 09:56:00,
2013-06-19 06:01:00,50.1,48.7,30.08,NE,41,0.0,0.0,95,0.00,FEW,,0.00,WeatherDisplay:10.37,2013-06-19 10:01:00,
2013-06-19 06:06:00,50.6,49.2,30.09,NE,43,0.0,0.0,95,0.00,FEW,,0.00,WeatherDisplay:10.37,2013-06-19 10:06:00,
2013-06-19 06:11:00,51.0,49.3,30.09,NE,41,0.2,1.2,94,0.00,FEW,,0.00,WeatherDisplay:10.37,2013-06-19 10:11:00,
2013-06-19 06:16:00,51.3,49.3,30.09,NE,41,0.2,1.2,93,0.00,FEW,,0.00,WeatherDisplay:10.37,2013-06-19 10:16:00,
2013-06-19 06:21:00,51.5,49.3,30.09,NE,41,0.0,0.0,92,0.00,FEW,,0.00,WeatherDisplay:10.37,2013-06-19 10:21:00,
2013-06-19 06:26:00,51.7,49.5,30.09,NE,41,0.0,0.0,92,0.00,FEW,,0.00,WeatherDisplay:10.37,2013-06-19 10:26:00,
2013-06-19 06:31:00,51.7,49.2,30.09,NE,41,0.0,0.0,91,0.00,FEW,,0.00,WeatherDisplay:10.37,2013-06-19 10:31:00,
2013-06-19 06:36:00,51.8,49.3,30.10,NNE,32,0.6,2.0,91,0.00,FEW,,0.00,WeatherDisplay:10.37,2013-06-19 10:36:00,
2013-06-19 06:41:00,51.9,49.1,30.10,NNE,32,0.0,1.2,90,0.00,FEW,,0.00,WeatherDisplay:10.37,2013-06-19 10:41:00,
2013-06-19 06:46:00,52.0,49.2,30.10,NNE,30,0.0,0.0,90,0.00,FEW,,0.00,WeatherDisplay:10.37,2013-06-19 10:46:00,
2013-06-19 06:51:00,52.2,49.4,30.11,NNE,30,0.0,0.0,90,0.00,FEW,,0.00,WeatherDisplay:10.37,2013-06-19 10:51:00,
2013-06-19 06:56:00,52.3,49.5,30.11,NNE,30,0.0,0.0,90,0.00,FEW,,0.00,WeatherDisplay:10.37,2013-06-19 10:56:00,
2013-06-19 07:01:00,52.5,49.4,30.11,NNE,30,0.0,0.0,89,0.00,BKN,,0.00,WeatherDisplay:10.37,2013-06-19 11:01:00,
2013-06-19 07:06:00,52.7,49.5,30.11,ENE,58,0.0,0.0,89,0.00,BKN,,0.00,WeatherDisplay:10.37,2013-06-19 11:06:00,
2013-06-19 07:12:00,53.0,49.8,30.11,ENE,58,0.0,0.0,89,0.00,BKN,,0.00,WeatherDisplay:10.37,2013-06-19 11:12:00,
2013-06-19 07:17:00,53.2,49.4,30.12,ENE,58,0.0,0.0,87,0.00,BKN,,0.00,WeatherDisplay:10.37,2013-06-19 11:17:00,
2013-06-19 07:22:00,53.6,49.8,30.12,NNE,15,0.5,2.3,87,0.00,BKN,,0.00,WeatherDisplay:10.37,2013-06-19 11:22:00,
2013-06-19 07:27:00,53.8,49.7,30.12,NNE,16,0.3,1.2,86,0.00,BKN,,0.00,WeatherDisplay:10.37,2013-06-19 11:27:00,
2013-06-19 07:32:00,54.1,50.0,30.12,NE,41,0.0,1.2,86,0.00,BKN,,0.00,WeatherDisplay:10.37,2013-06-19 11:32:00,
2013-06-19 07:37:00,54.3,49.9,30.12,NE,43,0.0,0.0,85,0.00,BKN,,0.00,WeatherDisplay:10.37,2013-06-19 11:37:00,
2013-06-19 07:42:00,54.6,49.9,30.12,NE,43,0.2,1.2,84,0.00,BKN,,0.00,WeatherDisplay:10.37,2013-06-19 11:42:00,
2013-06-19 07:47:00,54.9,50.2,30.12,North,1,0.6,1.2,84,0.00,BKN,,0.00,WeatherDisplay:10.37,2013-06-19 11:47:00,
2013-06-19 07:52:00,55.3,49.9,30.12,NNE,30,1.4,2.3,82,0.00,BKN,,0.00,WeatherDisplay:10.37,2013-06-19 11:52:00,
2013-06-19 07:57:00,55.7,49.6,30.12,North,357,0.3,1.2,80,0.00,BKN,,0.00,WeatherDisplay:10.37,2013-06-19 11:57:00,
2013-06-19 08:02:00,56.1,50.0,30.12,North,6,0.0,1.2,80,0.00,FEW,,0.00,WeatherDisplay:10.37,2013-06-19 12:02:00,
2013-06-19 08:07:00,56.3,49.9,30.12,SE,135,0.5,1.2,79,0.00,FEW,,0.00,WeatherDisplay:10.37,2013-06-19 12:07:00,
2013-06-19 08:12:00,56.6,49.8,30.13,NE,46,0.8,2.3,78,0.00,FEW,,0.00,WeatherDisplay:10.37,2013-06-19 12:12:00,
2013-06-19 08:17:00,56.7,49.2,30.13,NE,41,1.2,2.3,76,0.00,FEW,,0.00,WeatherDisplay:10.37,2013-06-19 12:17:00,
2013-06-19 08:22:00,56.9,49.1,30.13,ENE,75,1.6,3.5,75,0.00,FEW,,0.00,WeatherDisplay:10.37,2013-06-19 12:22:00,
2013-06-19 08:27:00,57.2,49.7,30.13,NE,40,0.0,1.2,76,0.00,FEW,,0.00,WeatherDisplay:10.37,2013-06-19 12:27:00,
2013-06-19 08:32:00,57.4,49.2,30.12,NNE,32,2.1,3.5,74,0.00,FEW,,0.00,WeatherDisplay:10.37,2013-06-19 12:32:00,
2013-06-19 08:37:00,57.7,49.5,30.13,NE,45,0.7,3.0,74,0.00,FEW,,0.00,WeatherDisplay:10.37,2013-06-19 12:37:00,
2013-06-19 08:42:00,58.0,49.4,30.13,NNE,13,0.9,2.0,73,0.00,FEW,,0.00,WeatherDisplay:10.37,2013-06-19 12:42:00,
2013-06-19 08:47:00,58.7,49.3,30.13,NNE,25,1.0,5.0,71,0.00,FEW,,0.00,WeatherDisplay:10.37,2013-06-19 12:47:00,
2013-06-19 08:52:00,59.2,48.2,30.13,NW,313,0.7,2.3,67,0.00,FEW,,0.00,WeatherDisplay:10.37,2013-06-19 12:52:00,
2013-06-19 08:57:00,59.5,47.3,30.14,NNE,25,1.8,4.6,64,0.00,FEW,,0.00,WeatherDisplay:10.37,2013-06-19 12:57:00,
2013-06-19 09:02:00,59.7,47.5,30.14,North,358,1.0,3.5,64,0.00,SCT,,0.00,WeatherDisplay:10.37,2013-06-19 13:02:00,
2013-06-19 09:07:00,60.3,48.1,30.14,East,85,0.4,3.5,64,0.00,SCT,,0.00,WeatherDisplay:10.37,2013-06-19 13:07:00,
2013-06-19 09:12:00,61.2,48.9,30.14,ESE,105,2.8,3.5,64,0.00,SCT,,0.00,WeatherDisplay:10.37,2013-06-19 13:12:00,
2013-06-19 09:17:00,61.6,48.0,30.14,East,89,2.0,3.5,61,0.00,SCT,,0.00,WeatherDisplay:10.37,2013-06-19 13:17:00,
2013-06-19 09:22:00,62.1,48.5,30.14,NNW,343,0.9,1.2,61,0.00,SCT,,0.00,WeatherDisplay:10.37,2013-06-19 13:22:00,
2013-06-19 09:27:00,62.6,48.5,30.14,West,278,0.2,1.2,60,0.00,SCT,,0.00,WeatherDisplay:10.37,2013-06-19 13:27:00,
2013-06-19 09:32:00,63.2,49.1,30.14,NNW,343,1.5,3.0,60,0.00,SCT,,0.00,WeatherDisplay:10.37,2013-06-19 13:32:00,
2013-06-19 09:37:00,62.6,48.1,30.14,North,9,2.7,3.5,59,0.00,SCT,,0.00,WeatherDisplay:10.37,2013-06-19 13:37:00,
2013-06-19 09:42:00,62.6,49.8,30.14,SE,143,0.2,1.2,63,0.00,SCT,,0.00,WeatherDisplay:10.37,2013-06-19 13:42:00,
2013-06-19 09:47:00,62.9,48.3,30.14,NNE,19,0.9,1.2,59,0.00,SCT,,0.00,WeatherDisplay:10.37,2013-06-19 13:47:00,
2013-06-19 09:52:00,63.0,48.4,30.14,NW,315,0.7,2.3,59,0.00,SCT,,0.00,WeatherDisplay:10.37,2013-06-19 13:52:00,
2013-06-19 09:57:00,62.9,49.2,30.14,NNE,22,1.1,2.3,61,0.00,SCT,,0.00,WeatherDisplay:10.37,2013-06-19 13:57:00,
2013-06-19 10:02:00,63.4,48.8,30.14,North,353,1.3,2.3,59,0.00,FEW,,0.00,WeatherDisplay:10.37,2013-06-19 14:02:00,
2013-06-19 10:07:00,63.3,49.6,30.14,East,81,0.0,2.3,61,0.00,FEW,,0.00,WeatherDisplay:10.37,2013-06-19 14:07:00,
2013-06-19 10:12:00,63.7,49.1,30.14,ESE,115,1.2,3.5,59,0.00,FEW,,0.00,WeatherDisplay:10.37,2013-06-19 14:12:00,
2013-06-19 10:17:00,63.9,48.8,30.14,West,273,1.5,3.5,58,0.00,FEW,,0.00,WeatherDisplay:10.37,2013-06-19 14:17:00,
2013-06-19 10:22:00,63.8,48.7,30.14,WNW,298,3.0,3.5,58,0.00,FEW,,0.00,WeatherDisplay:10.37,2013-06-19 14:22:00,
2013-06-19 10:27:00,63.8,51.0,30.14,NNE,23,2.3,3.5,63,0.00,FEW,,0.00,WeatherDisplay:10.37,2013-06-19 14:27:00,
2013-06-19 10:32:00,63.7,50.9,30.14,NW,318,0.8,2.3,63,0.00,FEW,,0.00,WeatherDisplay:10.37,2013-06-19 14:32:00,
2013-06-19 10:37:00,64.3,51.0,30.14,WSW,245,1.4,2.3,62,0.00,FEW,,0.00,WeatherDisplay:10.37,2013-06-19 14:37:00,
2013-06-19 10:42:00,64.3,51.0,30.14,WNW,288,1.0,2.3,62,0.00,FEW,,0.00,WeatherDisplay:10.37,2013-06-19 14:42:00,
2013-06-19 10:47:00,64.3,51.4,30.14,North,1,2.3,3.0,63,0.00,FEW,,0.00,WeatherDisplay:10.37,2013-06-19 14:47:00,
2013-06-19 10:52:00,64.4,51.5,30.14,North,4,1.2,2.0,63,0.00,FEW,,0.00,WeatherDisplay:10.37,2013-06-19 14:52:00,
2013-06-19 10:57:00,64.3,51.0,30.15,NNW,347,2.2,3.5,62,0.00,FEW,,0.00,WeatherDisplay:10.37,2013-06-19 14:57:00,
2013-06-19 11:02:00,64.1,50.4,30.15,NW,320,1.9,3.0,61,0.00,FEW,,0.00,WeatherDisplay:10.37,2013-06-19 15:02:00,
2013-06-19 11:07:00,64.0,49.4,30.15,NW,321,0.7,3.5,59,0.00,FEW,,0.00,WeatherDisplay:10.37,2013-06-19 15:07:00,
2013-06-19 11:12:00,64.0,50.7,30.15,NE,36,1.5,3.5,62,0.00,FEW,,0.00,WeatherDisplay:10.37,2013-06-19 15:12:00,
2013-06-19 11:17:00,64.3,51.4,30.14,NNW,329,1.9,2.0,63,0.00,FEW,,0.00,WeatherDisplay:10.37,2013-06-19 15:17:00,
2013-06-19 11:22:00,64.7,50.0,30.15,NNE,16,2.5,5.8,59,0.00,FEW,,0.00,WeatherDisplay:10.37,2013-06-19 15:22:00,
2013-06-19 11:27:00,64.1,49.0,30.15,ENE,67,2.0,4.0,58,0.00,FEW,,0.00,WeatherDisplay:10.37,2013-06-19 15:27:00,
2013-06-19 11:32:00,64.1,49.0,30.15,NNW,345,0.3,4.6,58,0.00,FEW,,0.00,WeatherDisplay:10.37,2013-06-19 15:32:00,
2013-06-19 11:37:00,64.5,49.8,30.15,NNE,26,1.7,3.5,59,0.00,FEW,,0.00,WeatherDisplay:10.37,2013-06-19 15:37:00,
2013-06-19 11:42:00,64.7,50.0,30.15,NE,39,1.5,3.0,59,0.00,FEW,,0.00,WeatherDisplay:10.37,2013-06-19 15:42:00,
2013-06-19 11:47:00,64.5,48.9,30.14,NW,322,2.6,3.5,57,0.00,FEW,,0.00,WeatherDisplay:10.37,2013-06-19 15:47:00,
2013-06-19 11:52:00,64.1,49.0,30.14,NNE,29,2.3,4.0,58,0.00,FEW,,0.00,WeatherDisplay:10.37,2013-06-19 15:52:00,
2013-06-19 11:58:00,64.2,46.2,30.14,NNW,339,1.5,3.5,52,0.00,FEW,,0.00,WeatherDisplay:10.37,2013-06-19 15:58:00,
2013-06-19 12:03:00,64.3,46.8,30.14,North,8,2.8,4.6,53,0.00,FEW,,0.00,WeatherDisplay:10.37,2013-06-19 16:03:00,
2013-06-19 12:08:00,64.7,47.7,30.15,WNW,289,2.6,5.8,54,0.00,FEW,,0.00,WeatherDisplay:10.37,2013-06-19 16:08:00,
2013-06-19 12:13:00,64.6,46.1,30.15,WNW,300,4.5,5.8,51,0.00,FEW,,0.00,WeatherDisplay:10.37,2013-06-19 16:13:00,
2013-06-19 12:18:00,64.7,47.7,30.15,East,89,2.1,3.5,54,0.00,FEW,,0.00,WeatherDisplay:10.37,2013-06-19 16:18:00,
2013-06-19 12:23:00,64.9,49.3,30.15,NE,44,3.3,6.0,57,0.00,FEW,,0.00,WeatherDisplay:10.37,2013-06-19 16:23:00,
2013-06-19 12:28:00,65.0,47.4,30.15,NE,37,1.2,3.5,53,0.00,FEW,,0.00,WeatherDisplay:10.37,2013-06-19 16:28:00,
2013-06-19 12:33:00,65.6,50.0,30.15,NE,37,2.0,3.5,57,0.00,FEW,,0.00,WeatherDisplay:10.37,2013-06-19 16:33:00,
2013-06-19 12:38:00,65.4,48.3,30.15,WNW,287,3.8,6.0,54,0.00,FEW,,0.00,WeatherDisplay:10.37,2013-06-19 16:38:00,
2013-06-19 12:43:00,65.1,47.0,30.15,NE,36,3.4,4.6,52,0.00,FEW,,0.00,WeatherDisplay:10.37,2013-06-19 16:43:00,
2013-06-19 12:48:00,65.1,47.0,30.15,NW,318,1.9,3.0,52,0.00,FEW,,0.00,WeatherDisplay:10.37,2013-06-19 16:48:00,
2013-06-19 12:53:00,65.2,47.1,30.15,NNW,347,3.0,4.6,52,0.00,FEW,,0.00,WeatherDisplay:10.37,2013-06-19 16:53:00,
2013-06-19 12:58:00,64.8,48.2,30.15,NNW,337,2.6,9.2,55,0.00,FEW,,0.00,WeatherDisplay:10.37,2013-06-19 16:58:00,
2013-06-19 13:03:00,65.0,48.9,30.15,NW,304,2.6,3.5,56,0.00,SCT,,0.00,WeatherDisplay:10.37,2013-06-19 17:03:00,
2013-06-19 13:08:00,64.9,47.9,30.15,NNE,30,0.9,3.0,54,0.00,SCT,,0.00,WeatherDisplay:10.37,2013-06-19 17:08:00,
2013-06-19 13:13:00,65.2,48.1,30.15,WNW,291,3.1,6.9,54,0.00,SCT,,0.00,WeatherDisplay:10.37,2013-06-19 17:13:00,
2013-06-19 13:18:00,65.1,48.0,30.15,West,276,3.0,5.8,54,0.00,SCT,,0.00,WeatherDisplay:10.37,2013-06-19 17:18:00,
2013-06-19 13:23:00,65.2,47.6,30.15,NE,37,3.9,8.1,53,0.00,SCT,,0.00,WeatherDisplay:10.37,2013-06-19 17:23:00,
2013-06-19 13:28:00,65.0,48.4,30.15,WNW,302,4.5,6.0,55,0.00,SCT,,0.00,WeatherDisplay:10.37,2013-06-19 17:28:00,
2013-06-19 13:33:00,65.2,48.1,30.15,WNW,302,2.9,5.0,54,0.00,SCT,,0.00,WeatherDisplay:10.37,2013-06-19 17:33:00,
2013-06-19 13:38:00,64.9,47.9,30.15,NW,322,2.7,4.6,54,0.00,SCT,,0.00,WeatherDisplay:10.37,2013-06-19 17:38:00,
2013-06-19 13:43:00,65.4,47.8,30.15,North,356,1.7,3.5,53,0.00,SCT,,0.00,WeatherDisplay:10.37,2013-06-19 17:43:00,
2013-06-19 13:48:00,65.5,46.4,30.15,NNE,12,4.1,6.9,50,0.00,SCT,,0.00,WeatherDisplay:10.37,2013-06-19 17:48:00,
2013-06-19 13:53:00,65.0,46.9,30.15,NNE,22,2.3,3.5,52,0.00,SCT,,0.00,WeatherDisplay:10.37,2013-06-19 17:53:00,
2013-06-19 13:58:00,65.2,47.6,30.15,East,92,3.2,5.8,53,0.00,SCT,,0.00,WeatherDisplay:10.37,2013-06-19 17:58:00,
2013-06-19 14:03:00,65.6,47.0,30.15,NW,305,3.9,8.1,51,0.00,SCT,,0.00,WeatherDisplay:10.37,2013-06-19 18:03:00,
2013-06-19 14:08:00,65.8,48.7,30.15,NE,34,1.8,2.3,54,0.00,SCT,,0.00,WeatherDisplay:10.37,2013-06-19 18:08:00,
2013-06-19 14:13:00,66.3,46.0,30.15,NNW,340,4.4,8.1,48,0.00,SCT,,0.00,WeatherDisplay:10.37,2013-06-19 18:13:00,
2013-06-19 14:18:00,65.6,44.8,30.15,NNE,22,2.2,3.5,47,0.00,SCT,,0.00,WeatherDisplay:10.37,2013-06-19 18:18:00,
2013-06-19 14:23:00,65.7,44.9,30.15,North,8,0.6,2.3,47,0.00,SCT,,0.00,WeatherDisplay:10.37,2013-06-19 18:23:00,
2013-06-19 14:28:00,66.0,46.3,30.15,NNW,327,2.1,3.5,49,0.00,SCT,,0.00,WeatherDisplay:10.37,2013-06-19 18:28:00,
2013-06-19 14:33:00,66.5,48.8,30.15,SE,129,1.5,4.6,53,0.00,SCT,,0.00,WeatherDisplay:10.37,2013-06-19 18:33:00,
2013-06-19 14:38:00,66.4,45.5,30.15,NW,320,2.0,3.5,47,0.00,SCT,,0.00,WeatherDisplay:10.37,2013-06-19 18:38:00,
2013-06-19 14:43:00,65.6,46.5,30.15,NW,324,1.3,3.5,50,0.00,SCT,,0.00,WeatherDisplay:10.37,2013-06-19 18:43:00,
2013-06-19 14:48:00,65.8,45.0,30.15,NW,312,2.0,3.5,47,0.00,SCT,,0.00,WeatherDisplay:10.37,2013-06-19 18:48:00,
2013-06-19 14:53:00,65.7,44.9,30.14,NE,37,3.4,10.4,47,0.00,SCT,,0.00,WeatherDisplay:10.37,2013-06-19 18:53:00,
2013-06-19 14:58:00,65.2,43.3,30.15,NNW,333,3.5,5.8,45,0.00,SCT,,0.00,WeatherDisplay:10.37,2013-06-19 18:58:00,
2013-06-19 15:03:00,65.4,45.2,30.15,NNE,12,2.4,5.0,48,0.00,SCT,,0.00,WeatherDisplay:10.37,2013-06-19 19:03:00,
2013-06-19 15:08:00,65.8,47.2,30.15,North,357,1.5,2.0,51,0.00,SCT,,0.00,WeatherDisplay:10.37,2013-06-19 19:08:00,
2013-06-19 15:14:00,66.1,45.3,30.15,NW,312,2.4,5.0,47,0.00,SCT,,0.00,WeatherDisplay:10.37,2013-06-19 19:14:00,
2013-06-19 15:19:00,66.6,45.7,30.15,NE,44,1.5,3.5,47,0.00,SCT,,0.00,WeatherDisplay:10.37,2013-06-19 19:19:00,
2013-06-19 15:24:00,66.4,45.0,30.14,North,358,2.1,4.6,46,0.00,SCT,,0.00,WeatherDisplay:10.37,2013-06-19 19:24:00,
2013-06-19 15:29:00,66.6,44.0,30.14,NNW,346,2.9,5.8,44,0.00,SCT,,0.00,WeatherDisplay:10.37,2013-06-19 19:29:00,
2013-06-19 15:34:00,66.5,45.1,30.14,WNW,297,2.4,3.5,46,0.00,SCT,,0.00,WeatherDisplay:10.37,2013-06-19 19:34:00,
2013-06-19 15:39:00,66.0,44.6,30.14,North,358,1.7,3.5,46,0.00,SCT,,0.00,WeatherDisplay:10.37,2013-06-19 19:39:00,
2013-06-19 15:44:00,66.1,44.1,30.14,NE,41,2.7,3.5,45,0.00,SCT,,0.00,WeatherDisplay:10.37,2013-06-19 19:44:00,
2013-06-19 15:49:00,66.0,42.2,30.14,NW,324,1.0,4.0,42,0.00,SCT,,0.00,WeatherDisplay:10.37,2013-06-19 19:49:00,
2013-06-19 15:54:00,66.3,44.9,30.13,NNE,32,0.9,1.2,46,0.00,SCT,,0.00,WeatherDisplay:10.37,2013-06-19 19:54:00,
2013-06-19 15:59:00,66.6,43.4,30.13,NNE,33,1.8,3.5,43,0.00,SCT,,0.00,WeatherDisplay:10.37,2013-06-19 19:59:00,
2013-06-19 16:04:00,66.5,45.1,30.13,NNE,32,1.6,3.0,46,0.00,SCT,,0.00,WeatherDisplay:10.37,2013-06-19 20:04:00,
2013-06-19 16:09:00,66.8,45.3,30.13,NNW,327,1.3,3.5,46,0.00,SCT,,0.00,WeatherDisplay:10.37,2013-06-19 20:09:00,
2013-06-19 16:14:00,66.6,42.8,30.13,WNW,301,4.6,5.8,42,0.00,SCT,,0.00,WeatherDisplay:10.37,2013-06-19 20:14:00,
2013-06-19 16:19:00,66.2,44.2,30.13,WSW,250,2.3,2.3,45,0.00,SCT,,0.00,WeatherDisplay:10.37,2013-06-19 20:19:00,
2013-06-19 16:24:00,66.6,42.8,30.13,NW,310,2.8,3.5,42,0.00,SCT,,0.00,WeatherDisplay:10.37,2013-06-19 20:24:00,
2013-06-19 16:29:00,66.2,43.0,30.13,SE,142,2.1,3.5,43,0.00,SCT,,0.00,WeatherDisplay:10.37,2013-06-19 20:29:00,
2013-06-19 16:34:00,66.2,43.0,30.13,NE,36,1.3,2.3,43,0.00,SCT,,0.00,WeatherDisplay:10.37,2013-06-19 20:34:00,
2013-06-19 16:39:00,66.4,43.2,30.13,NNE,22,2.8,4.6,43,0.00,SCT,,0.00,WeatherDisplay:10.37,2013-06-19 20:39:00,
2013-06-19 16:44:00,66.6,42.2,30.13,WNW,283,0.8,2.3,41,0.00,SCT,,0.00,WeatherDisplay:10.37,2013-06-19 20:44:00,
2013-06-19 16:49:00,67.1,43.2,30.13,ENE,68,0.9,2.3,42,0.00,SCT,,0.00,WeatherDisplay:10.37,2013-06-19 20:49:00,
2013-06-19 16:54:00,67.5,44.8,30.13,NE,56,1.9,3.5,44,0.00,SCT,,0.00,WeatherDisplay:10.37,2013-06-19 20:54:00,
2013-06-19 16:59:00,67.2,42.7,30.13,WNW,294,1.2,3.5,41,0.00,SCT,,0.00,WeatherDisplay:10.37,2013-06-19 20:59:00,
2013-06-19 17:04:00,67.3,45.2,30.13,East,85,2.3,2.3,45,0.00,SCT,,0.00,WeatherDisplay:10.37,2013-06-19 21:04:00,
2013-06-19 17:09:00,67.2,43.9,30.13,NW,313,1.9,4.0,43,0.00,SCT,,0.00,WeatherDisplay:10.37,2013-06-19 21:09:00,
2013-06-19 17:14:00,67.2,45.1,30.13,NNW,335,1.7,3.5,45,0.00,SCT,,0.00,WeatherDisplay:10.37,2013-06-19 21:14:00,
2013-06-19 17:19:00,67.4,44.7,30.12,West,280,0.0,5.0,44,0.00,SCT,,0.00,WeatherDisplay:10.37,2013-06-19 21:19:00,
2013-06-19 17:24:00,67.8,43.9,30.13,NW,326,3.1,4.0,42,0.00,SCT,,0.00,WeatherDisplay:10.37,2013-06-19 21:24:00,
2013-06-19 17:29:00,67.3,44.6,30.13,ENE,58,0.9,2.3,44,0.00,SCT,,0.00,WeatherDisplay:10.37,2013-06-19 21:29:00,
2013-06-19 17:34:00,67.1,44.4,30.13,NE,40,1.2,4.6,44,0.00,SCT,,0.00,WeatherDisplay:10.37,2013-06-19 21:34:00,
2013-06-19 17:40:00,67.0,43.1,30.12,NNE,17,2.0,6.0,42,0.00,SCT,,0.00,WeatherDisplay:10.37,2013-06-19 21:40:00,
2013-06-19 17:45:00,66.2,43.6,30.13,NW,320,3.1,4.6,44,0.00,SCT,,0.00,WeatherDisplay:10.37,2013-06-19 21:45:00,
2013-06-19 17:50:00,66.4,43.2,30.13,WNW,302,0.6,1.2,43,0.00,SCT,,0.00,WeatherDisplay:10.37,2013-06-19 21:50:00,
2013-06-19 17:55:00,66.8,44.8,30.12,NNE,29,0.4,1.2,45,0.00,SCT,,0.00,WeatherDisplay:10.37,2013-06-19 21:55:00,
2013-06-19 18:00:00,66.8,43.6,30.12,NNE,27,1.5,3.5,43,0.00,SCT,,0.00,WeatherDisplay:10.37,2013-06-19 22:00:00,
2013-06-19 18:05:00,66.5,42.7,30.13,WNW,294,1.4,4.0,42,0.00,SCT,,0.00,WeatherDisplay:10.37,2013-06-19 22:05:00,
2013-06-19 18:10:00,66.2,43.6,30.12,West,259,0.9,2.3,44,0.00,SCT,,0.00,WeatherDisplay:10.37,2013-06-19 22:10:00,
2013-06-19 18:15:00,66.8,44.2,30.12,NNE,27,1.1,2.3,44,0.00,SCT,,0.00,WeatherDisplay:10.37,2013-06-19 22:15:00,
2013-06-19 18:20:00,66.7,43.5,30.12,North,11,2.2,3.5,43,0.00,SCT,,0.00,WeatherDisplay:10.37,2013-06-19 22:20:00,
2013-06-19 18:25:00,66.7,46.9,30.11,East,88,0.8,2.0,49,0.00,SCT,,0.00,WeatherDisplay:10.37,2013-06-19 22:25:00,
2013-06-19 18:30:00,66.9,44.9,30.11,NE,37,1.2,2.3,45,0.00,SCT,,0.00,WeatherDisplay:10.37,2013-06-19 22:30:00,
2013-06-19 18:35:00,66.9,43.0,30.12,NW,308,2.6,3.5,42,0.00,SCT,,0.00,WeatherDisplay:10.37,2013-06-19 22:35:00,
2013-06-19 18:40:00,66.6,44.6,30.12,WNW,303,0.0,1.2,45,0.00,SCT,,0.00,WeatherDisplay:10.37,2013-06-19 22:40:00,
2013-06-19 18:45:00,66.8,44.8,30.12,NNW,341,0.9,1.2,45,0.00,SCT,,0.00,WeatherDisplay:10.37,2013-06-19 22:45:00,
2013-06-19 18:50:00,66.9,43.0,30.12,NW,325,0.7,3.5,42,0.00,SCT,,0.00,WeatherDisplay:10.37,2013-06-19 22:50:00,
2013-06-19 18:55:00,67.1,43.2,30.12,NW,324,0.7,1.2,42,0.00,SCT,,0.00,WeatherDisplay:10.37,2013-06-19 22:55:00,
2013-06-19 19:00:00,67.3,45.8,30.12,NNW,347,0.1,1.2,46,0.00,SCT,,0.00,WeatherDisplay:10.37,2013-06-19 23:00:00,
2013-06-19 19:05:00,67.2,44.5,30.12,NE,43,1.0,1.2,44,0.00,SCT,,0.00,WeatherDisplay:10.37,2013-06-19 23:05:00,
2013-06-19 19:10:00,67.0,44.9,30.12,NE,40,0.0,0.0,45,0.00,SCT,,0.00,WeatherDisplay:10.37,2013-06-19 23:10:00,
2013-06-19 19:15:00,67.3,46.4,30.13,NE,53,0.5,1.2,47,0.00,SCT,,0.00,WeatherDisplay:10.37,2013-06-19 23:15:00,
2013-06-19 19:20:00,67.5,44.2,30.13,NNW,337,0.0,0.0,43,0.00,SCT,,0.00,WeatherDisplay:10.37,2013-06-19 23:20:00,
2013-06-19 19:25:00,67.1,45.6,30.12,East,84,0.5,1.2,46,0.00,SCT,,0.00,WeatherDisplay:10.37,2013-06-19 23:25:00,
2013-06-19 19:30:00,66.8,45.3,30.12,NW,305,1.5,2.3,46,0.00,SCT,,0.00,WeatherDisplay:10.37,2013-06-19 23:30:00,
2013-06-19 19:35:00,66.4,43.8,30.12,NW,321,1.7,3.5,44,0.00,SCT,,0.00,WeatherDisplay:10.37,2013-06-19 23:35:00,
2013-06-19 19:40:00,66.1,43.5,30.13,NNE,23,1.8,3.5,44,0.00,SCT,,0.00,WeatherDisplay:10.37,2013-06-19 23:40:00,
2013-06-19 19:45:00,65.9,43.9,30.13,North,353,0.9,2.3,45,0.00,SCT,,0.00,WeatherDisplay:10.37,2013-06-19 23:45:00,
2013-06-19 19:50:00,66.4,45.5,30.13,NNW,338,0.0,0.0,47,0.00,SCT,,0.00,WeatherDisplay:10.37,2013-06-19 23:50:00,
2013-06-19 19:55:00,66.4,44.4,30.13,NW,322,1.0,2.3,45,0.00,SCT,,0.00,WeatherDisplay:10.37,2013-06-19 23:55:00,
2013-06-19 20:00:00,66.1,46.4,30.12,NW,322,0.2,1.0,49,0.00,SCT,,0.00,WeatherDisplay:10.37,2013-06-20 00:00:00,
2013-06-19 20:05:00,65.7,46.5,30.12,NNW,329,0.0,0.0,50,0.00,FEW,,0.00,WeatherDisplay:10.37,2013-06-20 00:05:00,
2013-06-19 20:10:00,65.6,47.0,30.12,NNW,329,0.0,0.0,51,0.00,FEW,,0.00,WeatherDisplay:10.37,2013-06-20 00:10:00,
2013-06-19 20:15:00,66.0,47.3,30.12,NNW,329,0.0,0.0,51,0.00,FEW,,0.00,WeatherDisplay:10.37,2013-06-20 00:15:00,
2013-06-19 20:20:00,65.8,46.1,30.12,NNW,329,0.0,0.0,49,0.00,FEW,,0.00,WeatherDisplay:10.37,2013-06-20 00:20:00,
2013-06-19 20:25:00,65.2,46.1,30.12,NNW,329,0.0,0.0,50,0.00,FEW,,0.00,WeatherDisplay:10.37,2013-06-20 00:25:00,
2013-06-19 20:30:00,64.8,46.8,30.12,NNW,329,0.0,0.0,52,0.00,FEW,,0.00,WeatherDisplay:10.37,2013-06-20 00:30:00,
2013-06-19 20:35:00,64.1,47.6,30.12,NNW,329,0.0,0.0,55,0.00,FEW,,0.00,WeatherDisplay:10.37,2013-06-20 00:35:00,
2013-06-19 20:40:00,63.1,48.1,30.13,NNW,329,0.0,0.0,58,0.00,FEW,,0.00,WeatherDisplay:10.37,2013-06-20 00:40:00,
2013-06-19 20:45:00,61.9,47.4,30.13,NNW,329,0.0,0.0,59,0.00,FEW,,0.00,WeatherDisplay:10.37,2013-06-20 00:45:00,
2013-06-19 20:50:00,60.7,46.3,30.13,NNW,329,0.0,0.0,59,0.00,FEW,,0.00,WeatherDisplay:10.37,2013-06-20 00:50:00,
2013-06-19 20:55:00,59.6,45.2,30.12,NNW,329,0.0,0.0,59,0.00,FEW,,0.00,WeatherDisplay:10.37,2013-06-20 00:55:00,
2013-06-19 21:00:00,58.7,46.1,30.13,NNW,329,0.0,0.0,63,0.00,FEW,,0.00,WeatherDisplay:10.37,2013-06-20 01:00:00,
2013-06-19 21:05:00,58.0,46.7,30.13,NNW,329,0.0,0.0,66,0.00,SCT,,0.00,WeatherDisplay:10.37,2013-06-20 01:05:00,
2013-06-19 21:10:00,57.3,46.8,30.13,NNW,329,0.0,0.0,68,0.00,SCT,,0.00,WeatherDisplay:10.37,2013-06-20 01:10:00,
2013-06-19 21:15:00,56.7,46.3,30.13,NNW,329,0.0,0.0,68,0.00,SCT,,0.00,WeatherDisplay:10.37,2013-06-20 01:15:00,
2013-06-19 21:20:00,56.2,46.5,30.13,NNW,329,0.0,0.0,70,0.00,SCT,,0.00,WeatherDisplay:10.37,2013-06-20 01:20:00,
2013-06-19 21:25:00,55.7,46.8,30.13,NNW,329,0.0,0.0,72,0.00,SCT,,0.00,WeatherDisplay:10.37,2013-06-20 01:25:00,
2013-06-19 21:30:00,55.3,46.4,30.13,NNW,329,0.0,0.0,72,0.00,SCT,,0.00,WeatherDisplay:10.37,2013-06-20 01:30:00,
2013-06-19 21:35:00,55.0,46.9,30.14,NNW,329,0.0,0.0,74,0.00,SCT,,0.00,WeatherDisplay:10.37,2013-06-20 01:35:00,
2013-06-19 21:40:00,54.5,46.7,30.14,NNW,329,0.0,0.0,75,0.00,SCT,,0.00,WeatherDisplay:10.37,2013-06-20 01:40:00,
2013-06-19 21:45:00,53.9,45.8,30.14,NNW,329,0.0,0.0,74,0.00,SCT,,0.00,WeatherDisplay:10.37,2013-06-20 01:45:00,
2013-06-19 21:50:00,53.4,45.7,30.14,NNW,329,0.0,0.0,75,0.00,SCT,,0.00,WeatherDisplay:10.37,2013-06-20 01:50:00,
2013-06-19 21:55:00,53.0,45.3,30.14,NNW,329,0.0,0.0,75,0.00,SCT,,0.00,WeatherDisplay:10.37,2013-06-20 01:55:00,
2013-06-19 22:00:00,52.8,45.8,30.15,NNW,329,0.0,0.0,77,0.00,SCT,,0.00,WeatherDisplay:10.37,2013-06-20 02:00:00,
2013-06-19 22:06:00,52.6,45.2,30.15,NNW,329,0.0,0.0,76,0.00,SCT,,0.00,WeatherDisplay:10.37,2013-06-20 02:06:00,
2013-06-19 22:11:00,52.6,45.6,30.15,NNW,329,0.0,0.0,77,0.00,SCT,,0.00,WeatherDisplay:10.37,2013-06-20 02:11:00,
2013-06-19 22:15:00,47.5,45.9,30.16,NNW,333,0.0,0.0,94,0.00,CLR,,0.00,WeatherDisplay:10.37,2013-06-20 02:15:00,
2013-06-19 22:16:00,52.6,46.3,30.15,NNW,329,0.0,0.0,79,0.00,SCT,,0.00,WeatherDisplay:10.37,2013-06-20 02:16:00,
2013-06-19 22:20:00,47.3,45.7,30.16,NNW,338,0.0,0.0,94,0.00,CLR,,0.00,WeatherDisplay:10.37,2013-06-20 02:20:00,
2013-06-19 22:21:00,52.3,46.6,30.15,NNW,329,0.0,0.0,81,0.00,SCT,,0.00,WeatherDisplay:10.37,2013-06-20 02:21:00,
2013-06-19 22:25:00,47.2,45.8,30.16,NNW,338,0.0,0.0,95,0.00,CLR,,0.00,WeatherDisplay:10.37,2013-06-20 02:25:00,
2013-06-19 22:27:00,51.9,46.3,30.15,NNW,329,0.0,0.0,81,0.00,SCT,,0.00,WeatherDisplay:10.37,2013-06-20 02:27:00,
2013-06-19 22:30:00,47.2,45.8,30.16,NNW,338,0.0,0.0,95,0.00,CLR,,0.00,WeatherDisplay:10.37,2013-06-20 02:30:00,
2013-06-19 22:32:00,51.7,46.1,30.15,NNW,329,0.0,0.0,81,0.00,SCT,,0.00,WeatherDisplay:10.37,2013-06-20 02:32:00,
2013-06-19 22:35:00,47.0,45.6,30.16,NNW,338,0.0,0.0,95,0.00,CLR,,0.00,WeatherDisplay:10.37,2013-06-20 02:35:00,
2013-06-19 22:37:00,51.4,45.8,30.15,NNW,329,0.0,0.0,81,0.00,SCT,,0.00,WeatherDisplay:10.37,2013-06-20 02:37:00,
2013-06-19 22:40:00,46.9,45.5,30.16,NNW,338,0.0,0.0,95,0.00,CLR,,0.00,WeatherDisplay:10.37,2013-06-20 02:40:00,
2013-06-19 22:42:00,51.2,45.9,30.16,NNW,329,0.0,0.0,82,0.00,SCT,,0.00,WeatherDisplay:10.37,2013-06-20 02:42:00,
2013-06-19 22:45:00,46.9,45.5,30.17,NNW,338,0.0,0.0,95,0.00,CLR,,0.00,WeatherDisplay:10.37,2013-06-20 02:45:00,
2013-06-19 22:47:00,50.9,45.9,30.16,NNW,329,0.0,0.0,83,0.00,SCT,,0.00,WeatherDisplay:10.37,2013-06-20 02:47:00,
2013-06-19 22:50:00,46.8,45.4,30.17,NNW,338,0.0,0.0,95,0.00,CLR,,0.00,WeatherDisplay:10.37,2013-06-20 02:50:00,
2013-06-19 22:52:00,50.7,46.4,30.16,NNW,329,0.0,0.0,85,0.00,SCT,,0.00,WeatherDisplay:10.37,2013-06-20 02:52:00,
2013-06-19 22:55:00,46.8,45.4,30.17,NNW,338,0.0,0.0,95,0.00,CLR,,0.00,WeatherDisplay:10.37,2013-06-20 02:55:00,
2013-06-19 22:57:00,50.6,46.9,30.16,NNW,329,0.0,0.0,87,0.00,SCT,,0.00,WeatherDisplay:10.37,2013-06-20 02:57:00,
2013-06-19 23:00:00,46.7,45.3,30.17,NNW,338,0.0,0.0,95,0.00,CLR,,0.00,WeatherDisplay:10.37,2013-06-20 03:00:00,
2013-06-19 23:02:00,50.5,47.1,30.16,NNW,329,0.0,0.0,88,0.00,FEW,,0.00,WeatherDisplay:10.37,2013-06-20 03:02:00,
2013-06-19 23:05:00,46.7,45.3,30.17,NNW,338,0.0,0.0,95,0.00,CLR,,0.00,WeatherDisplay:10.37,2013-06-20 03:05:00,
2013-06-19 23:07:00,50.3,46.9,30.16,NNW,329,0.0,0.0,88,0.00,FEW,,0.00,WeatherDisplay:10.37,2013-06-20 03:07:00,
2013-06-19 23:10:00,46.4,45.0,30.17,NNW,338,0.0,0.0,95,0.00,CLR,,0.00,WeatherDisplay:10.37,2013-06-20 03:10:00,
2013-06-19 23:12:00,50.4,47.3,30.16,NNW,329,0.0,0.0,89,0.00,FEW,,0.00,WeatherDisplay:10.37,2013-06-20 03:12:00,
2013-06-19 23:15:00,46.2,44.8,30.17,NNW,338,0.0,0.0,95,0.00,CLR,,0.00,WeatherDisplay:10.37,2013-06-20 03:15:00,
2013-06-19 23:17:00,50.3,47.2,30.16,NNW,329,0.7,1.2,89,0.00,FEW,,0.00,WeatherDisplay:10.37,2013-06-20 03:17:00,
2013-06-19 23:20:00,46.1,44.7,30.18,NNW,338,0.0,0.0,95,0.00,CLR,,0.00,WeatherDisplay:10.37,2013-06-20 03:20:00,
2013-06-19 23:22:00,50.2,47.4,30.16,NNW,329,0.0,0.0,90,0.00,FEW,,0.00,WeatherDisplay:10.37,2013-06-20 03:22:00,
2013-06-19 23:25:00,46.1,44.7,30.18,NNW,338,0.0,0.0,95,0.00,CLR,,0.00,WeatherDisplay:10.37,2013-06-20 03:25:00,
2013-06-19 23:27:00,50.1,47.3,30.16,NNW,329,0.0,0.0,90,0.00,FEW,,0.00,WeatherDisplay:10.37,2013-06-20 03:27:00,
2013-06-19 23:30:00,46.0,44.6,30.18,NNW,338,0.0,0.0,95,0.00,CLR,,0.00,WeatherDisplay:10.37,2013-06-20 03:30:00,
2013-06-19 23:32:00,49.9,47.4,30.16,NNW,329,0.0,0.0,91,0.00,FEW,,0.00,WeatherDisplay:10.37,2013-06-20 03:32:00,
2013-06-19 23:35:00,46.0,44.6,30.18,NNW,338,0.0,0.0,95,0.00,CLR,,0.00,WeatherDisplay:10.37,2013-06-20 03:35:00,
2013-06-19 23:37:00,49.8,47.3,30.16,NNW,329,0.3,1.2,91,0.00,FEW,,0.00,WeatherDisplay:10.37,2013-06-20 03:37:00,
2013-06-19 23:40:00,46.0,44.6,30.18,NNW,338,0.0,0.0,95,0.00,CLR,,0.00,WeatherDisplay:10.37,2013-06-20 03:40:00,
2013-06-19 23:42:00,49.7,47.2,30.16,NNW,329,0.0,0.0,91,0.00,FEW,,0.00,WeatherDisplay:10.37,2013-06-20 03:42:00,
2013-06-19 23:45:00,45.8,44.4,30.18,NNW,338,0.0,0.0,95,0.00,CLR,,0.00,WeatherDisplay:10.37,2013-06-20 03:45:00,
2013-06-19 23:47:00,49.6,47.1,30.17,NNW,329,0.0,0.0,91,0.00,FEW,,0.00,WeatherDisplay:10.37,2013-06-20 03:47:00,
2013-06-19 23:50:00,45.8,44.4,30.18,NNW,338,0.0,0.0,95,0.00,CLR,,0.00,WeatherDisplay:10.37,2013-06-20 03:50:00,
2013-06-19 23:52:00,49.6,47.4,30.17,NNW,329,0.0,0.0,92,0.00,FEW,,0.00,WeatherDisplay:10.37,2013-06-20 03:52:00,
2013-06-19 23:55:00,45.7,44.4,30.18,NNW,338,0.0,0.0,95,0.00,CLR,,0.00,WeatherDisplay:10.37,2013-06-20 03:55:00,
2013-06-19 23:57:00,49.8,47.9,30.17,NNW,329,0.0,0.0,93,0.00,FEW,,0.00,WeatherDisplay:10.37,2013-06-20 03:57:00,